Simultaneous Nadir Overpasses (SNOs) Predictions

Prediction of SNOs between GOES-16 and AQUA Satellite Orbit:

Table of predicted SNOs for the next 14.0 days since TLE Epoch: 6/3/2023
Index Date Time (GOES-16) GOES-16 Lat,Lon AQUA Lat,Lon Distance(km) Time Diff (sec)
1 06/04/2023 18:40:30 0.03, -75.20 0.58, -72.59 296.48 80
2 06/05/2023 06:58:37 -0.03, -75.20 0.46, -77.63 275.40 80
3 06/07/2023 06:47:12 -0.03, -75.21 -0.23, -74.19 115.62 80
4 06/07/2023 19:05:27 0.03, -75.21 -0.85, -79.25 460.74 80
5 06/09/2023 18:51:22 0.03, -75.22 -0.12, -75.82 68.56 80
6 06/11/2023 18:39:57 0.03, -75.24 0.63, -72.38 324.83 80
7 06/12/2023 06:58:02 -0.03, -75.25 0.44, -77.41 246.11 80
8 06/14/2023 06:46:37 -0.04, -75.28 -0.29, -73.97 148.23 80
9 06/14/2023 19:04:51 0.04, -75.29 -0.76, -79.05 427.50 80
10 06/16/2023 18:50:45 0.05, -75.32 0.01, -75.61 32.55 80
